Location: Caltech
(34.1382°N, 118.1253°W)
Time: 03:59:45
(UTC-07:00)

Iridium 3 - Visible Passes

Search period start: 29 June 2016 00:00
Search period end: 09 July 2016 00:00
Orbit: 776 x 779 km, 86.4° (Epoch: 28 June)

Date Brightness Start Highest point End Pass type
(mag) Time Alt. Az. Time Alt. Az. Time Alt. Az.
29 Jun 5.5 20:47:34 10° N 20:52:48 77° E 20:58:00 10° S visible
30 Jun 8.0 21:55:59 10° NW 21:59:33 19° W 22:03:08 10° SW visible
01 Jul 7.0 21:21:33 10° NNW 21:26:17 36° W 21:31:00 10° SSW visible
02 Jul 5.8 20:47:41 10° N 20:52:53 71° W 20:58:03 10° S visible
03 Jul 8.4 21:57:20 10° NW 21:59:27 12° W 22:01:35 10° WSW visible
04 Jul 7.8 21:22:06 10° NNW 21:26:14 24° W 21:30:23 10° SW visible
05 Jul 6.6 20:47:55 10° NNW 20:52:55 47° W 20:57:53 10° SSW visible
07 Jul 8.3 21:22:59 10° NW 21:26:11 17° W 21:29:21 10° WSW visible
08 Jul 7.5 20:48:20 10° NNW 20:52:55 32° W 20:57:28 10° SW visible
